Voltar ao catálogo

STARLINK-3543

AtivoComunicaçõesVLEO
NORAD 51716·PAYLOAD·🇺🇸 United States

Lançado Feb 21, 2022 de Cape Canaveral Space Force Station

Loading…

Próximas Passagens (próximas 24 horas)

TLE

AtualizadoSource: CelesTrak SupGP

Época: Sep 15, 2026, 02:31 UTC

1 51716C 22016C   26258.10534722 -.00015203  00000+0 -46135-3 0  2580
2 51716  53.1596 189.2228 0001398  84.3389  93.7208 15.33553571    17

Acompanhe STARLINK-3543 em tempo real com AllMySat

Download on the App Store